Theta_e
315 317 318 318 322 318 318 320 318 321 337 341 342 342 340 344 339 342 346 346 345 346 341 337 336 341 340 340 342 340 336 338 335 330 330 332 332 329 329 325 325 324 324
312 315 316 318 318 321 321 319 320 314 325 338 336 342 342 343 344 345 348 346 344 345 341 337 343 341 341 343 340 338 338 336 333 327 325 322 326 328 329 326 324 321 322
310 312 314 316 318 317 321 324 322 320 316 337 341 338 332 341 342 343 343 345 344 345 343 338 345 343 342 341 342 340 338 331 330 329 324 316 314 317 325 324 322 321 322
310 311 313 314 316 317 320 323 323 325 319 332 340 339 336 336 340 341 345 344 344 344 340 338 346 342 344 344 341 342 339 333 326 327 325 322 319 313 312 317 321 317 311
308 309 310 314 316 317 316 319 325 323 320 324 339 339 338 340 341 338 342 343 342 342 339 338 346 342 344 344 343 338 337 333 329 324 323 321 320 315 313 308 309 305 306
308 309 312 315 316 317 317 315 320 323 320 330 338 339 338 338 338 334 338 340 341 338 337 338 346 342 342 341 335 330 326 325 322 318 316 313 311 308 306 304 301 299 302
307 308 309 311 314 316 317 316 315 321 319 321 337 339 339 340 337 336 336 338 337 336 335 338 342 341 338 334 331 327 322 320 318 316 312 310 308 306 304 301 299 298 302
307 307 309 310 312 315 317 317 313 316 319 319 330 339 340 342 340 338 339 339 338 337 337 341 340 336 333 329 326 323 320 317 314 313 309 308 306 305 303 302 301 299 300
306 307 309 311 313 315 317 315 312 313 319 319 330 337 339 341 340 337 339 339 339 338 339 339 333 332 328 326 322 320 316 312 311 310 308 308 309 308 307 307 305 301 299
306 307 309 311 313 315 319 318 313 313 316 319 330 338 339 341 342 338 338 340 339 340 338 332 330 328 324 322 320 315 312 309 310 309 309 309 309 307 307 307 306 304 300
306 307 309 311 314 315 316 315 314 313 318 320 330 338 339 340 340 338 339 340 339 337 332 329 326 322 319 315 312 310 309 309 309 309 309 305 306 304 305 305 305 303 302
306 307 309 312 314 313 315 320 311 319 323 327 332 337 339 339 338 337 339 340 335 331 329 324 320 317 314 310 308 307 307 307 305 304 304 303 304 302 303 302 301 301 301
306 307 309 312 313 314 317 317 318 318 318 321 326 330 330 333 334 336 339 336 327 324 322 318 314 311 309 307 307 308 305 303 302 301 300 300 300 299 299 299 300 299 300
305 306 308 310 313 315 318 316 313 315 315 316 319 325 327 327 333 333 329 325 322 319 316 313 310 308 307 307 306 303 301 301 300 300 299 299 297 295 296 299 298 299 296
304 306 307 309 312 315 317 317 317 318 315 313 324 322 324 325 323 323 320 318 315 313 311 308 306 306 306 305 303 301 300 299 298 298 298 297 301 305 302 297 295 294 294
304 305 306 308 309 313 315 314 316 316 321 317 319 318 319 320 319 317 313 312 309 308 307 307 304 303 303 302 304 303 302 302 298 296 294 294 296 297 300 303 307 299 293
304 305 306 307 310 312 314 312 313 315 318 320 318 315 313 311 310 310 308 307 306 306 304 303 303 302 303 301 301 302 299 298 297 294 292 291 294 294 294 299 303 303 302
303 306 306 307 308 310 311 312 312 312 313 315 314 312 309 308 308 307 306 305 305 302 301 302 303 302 301 298 297 297 295 294 292 290 290 289 289 293 294 294 294 294 294
305 305 307 307 306 307 308 309 308 309 309 309 310 311 308 306 305 304 303 302 301 300 301 302 301 299 298 296 295 293 291 289 288 290 290 289 288 293 293 293 291 291 292
304 305 307 305 303 304 305 303 304 304 305 307 307 307 307 305 303 302 301 301 300 299 300 297 296 298 296 297 296 294 291 288 288 287 288 294 291 292 292 288 289 289 289
302 304 306 302 301 303 302 300 301 302 304 305 305 304 303 301 301 300 300 299 299 298 296 294 293 293 294 296 296 296 294 291 290 289 288 288 292 292 292 292 289 289 292
301 302 304 300 300 301 300 299 299 302 304 304 303 302 302 301 300 298 298 298 297 295 293 291 290 291 292 295 295 295 294 293 289 288 289 289 291 291 291 291 293 294 294
301 301 302 298 298 299 299 298 300 302 302 301 299 299 299 299 299 297 296 295 296 294 292 290 289 289 289 290 294 293 293 295 290 290 291 292 292 294 293 294 294 294 291
299 300 300 296 295 297 298 298 300 301 300 299 299 299 298 297 297 297 297 295 293 291 290 289 288 288 287 287 288 289 289 294 292 293 293 294 294 295 295 293 293 293 292
299 300 297 294 294 296 297 298 300 301 299 299 298 298 295 292 290 290 293 293 293 291 288 288 290 289 287 286 290 291 288 287 288 292 291 290 289 289 290 290 291 291 291
298 298 295 294 294 296 296 298 300 301 298 295 295 293 291 290 290 289 288 290 291 291 290 289 289 286 288 289 289 289 290 292 292 290 288 288 288 288 288 289 289 290 290
Wind_Speed
15 16 8 5 6 6 7 9 9 9 4 3 4 2 6 4 9 9 14 17 13 12 9 5 5 5 5 5 6 4 4 4 1 3 4 3 2 4 3 3 3 5 4
19 18 16 11 7 6 9 8 9 10 7 5 3 3 4 6 6 6 12 16 14 12 10 8 6 7 4 6 5 6 2 2 1 3 2 1 4 3 1 2 3 2 1
19 19 19 15 13 9 9 10 11 12 11 9 7 7 6 14 10 8 4 12 14 13 13 10 7 7 6 5 5 5 6 3 1 1 4 2 2 2 3 2 2 1 3
19 18 21 17 16 13 10 12 14 15 12 10 9 12 14 16 15 9 6 9 16 14 12 12 8 8 5 6 5 5 4 5 4 2 2 3 4 3 1 3 3 4 4
17 19 21 22 8 7 8 10 14 16 13 11 11 11 12 13 11 6 14 16 11 13 12 11 7 8 6 6 7 6 6 3 4 3 2 4 4 5 3 2 4 4 4
20 19 19 19 16 13 13 8 9 15 15 13 13 15 16 13 11 7 10 8 6 6 9 11 7 6 7 9 8 8 8 7 6 5 7 4 3 1 3 2 1 1 4
18 21 21 20 20 23 22 14 12 16 15 13 13 15 16 15 15 11 9 8 6 6 8 8 7 8 10 11 11 11 9 7 6 7 6 6 4 3 3 4 1 0 3
17 18 20 21 21 23 25 21 16 12 16 17 16 13 14 11 11 11 11 9 8 10 9 8 11 12 14 12 12 10 8 9 8 10 8 6 4 4 3 3 3 2 2
22 21 22 19 20 22 24 20 12 12 13 17 14 14 14 15 12 12 14 12 10 12 11 14 14 13 14 14 13 10 10 10 8 8 8 6 4 5 4 4 2 4 1
23 23 22 22 21 23 19 15 15 16 19 19 15 14 16 15 14 13 16 17 16 17 17 17 16 15 15 14 14 11 10 12 8 7 9 7 4 5 5 4 3 4 2
21 21 23 21 21 18 9 9 12 7 19 20 16 15 14 15 14 13 16 13 19 19 20 19 17 18 14 14 13 12 12 13 12 9 9 9 7 5 4 3 4 4 2
22 21 20 23 16 18 20 14 4 3 3 9 13 14 11 12 14 15 17 11 20 21 20 19 19 18 15 14 14 14 12 12 11 10 10 9 7 6 5 3 5 2 3
22 22 19 18 15 16 16 8 9 11 14 2 2 5 7 9 10 12 14 20 21 24 18 19 19 18 15 14 12 13 13 12 12 10 10 8 6 4 3 2 4 2 5
20 22 21 19 15 14 15 12 4 3 5 11 14 7 7 5 8 14 19 22 22 19 17 17 17 18 15 14 14 14 13 13 12 10 9 8 6 5 5 4 4 6 5
19 20 21 19 16 15 13 13 13 12 7 12 3 5 7 12 15 13 24 18 19 17 21 19 17 16 15 11 14 13 13 14 13 10 10 7 8 13 6 1 4 3 2
17 18 19 20 19 17 12 14 17 22 21 10 6 13 14 17 14 16 16 20 22 18 21 18 18 14 11 17 18 15 12 11 11 10 7 7 10 7 12 14 6 6 2
16 16 17 18 16 15 15 11 10 8 9 12 9 15 18 18 16 10 20 20 20 21 19 18 18 16 15 13 17 20 13 13 12 8 7 7 6 9 7 9 10 4 3
15 16 14 15 17 14 13 12 9 10 11 9 9 13 17 20 16 15 18 20 17 20 18 18 18 15 12 20 22 22 16 12 10 7 6 6 6 8 6 7 7 7 6
12 13 11 13 15 14 11 9 8 7 12 11 9 9 17 23 18 16 18 19 22 20 15 14 16 15 13 18 20 19 13 11 9 6 6 6 6 11 14 7 9 10 9
10 12 12 11 14 15 11 10 8 10 12 13 11 10 16 17 22 16 14 17 20 21 15 14 12 13 13 16 17 14 9 10 6 5 5 9 8 8 10 7 6 8 6
11 13 10 10 13 13 10 9 8 8 9 15 14 13 16 20 19 21 14 16 19 20 16 15 11 11 10 9 12 10 7 7 5 4 3 5 8 10 9 9 5 4 4
11 12 9 9 11 11 8 8 8 6 9 16 18 14 14 13 14 22 17 16 18 19 16 15 13 9 9 13 15 16 11 9 6 5 3 2 7 8 10 8 11 13 10
8 9 6 8 9 10 7 6 6 6 10 17 20 16 16 16 16 16 17 15 14 13 13 12 11 8 7 6 14 15 13 10 5 4 4 5 7 9 7 12 13 10 6
7 8 7 7 7 7 8 7 6 6 13 20 19 15 16 18 15 11 10 11 11 11 11 10 9 8 5 5 5 5 5 8 6 5 4 6 6 10 9 7 8 7 6
7 7 6 6 6 6 7 7 5 7 13 16 16 16 12 14 12 10 6 7 10 10 11 9 9 9 5 2 2 5 5 4 3 5 6 6 5 5 6 5 7 7 6
6 6 6 6 6 6 8 7 6 7 13 15 13 11 11 10 11 12 13 22 20 21 20 17 11 6 9 7 10 9 9 13 12 7 5 5 5 5 5 6 6 6 8
Wind_Direction
2 4 359 13 249 261 214 207 202 178 166 172 196 227 247 175 201 207 194 183 185 175 160 165 177 176 180 165 146 113 108 51 113 68 347 4 101 128 141 152 136 154 166
1 349 340 330 306 247 232 227 210 205 177 162 170 163 217 263 232 219 185 184 174 169 169 165 175 179 150 139 147 130 109 95 351 138 125 14 352 326 204 112 171 170 119
354 338 325 319 304 285 235 218 215 210 211 174 169 178 182 252 254 227 259 186 176 170 172 173 162 158 142 151 146 130 120 130 298 114 142 69 196 339 352 8 63 119 17
336 321 306 296 296 291 281 250 214 208 199 186 175 182 193 203 227 219 233 248 178 169 169 174 167 162 148 151 150 142 133 129 163 51 54 97 138 140 20 344 55 55 32
326 313 316 305 297 306 301 311 246 212 199 194 184 180 196 217 218 176 193 200 184 163 166 161 162 170 153 157 140 120 107 121 123 152 149 69 65 52 93 302 335 1 355
326 315 314 307 308 296 298 283 259 235 199 189 195 185 199 204 210 177 195 194 162 150 176 162 162 140 125 123 107 101 94 98 94 89 74 93 122 76 87 93 349 220 301
323 320 316 313 314 310 305 302 283 239 210 196 195 196 199 204 208 181 183 164 164 162 193 154 138 126 124 115 111 101 94 85 87 92 89 79 74 103 104 93 297 105 293
324 314 305 310 306 303 293 286 275 253 222 200 202 193 198 209 205 188 173 179 170 168 175 138 124 126 120 111 108 102 94 89 84 86 84 86 72 72 89 121 123 332 322
329 321 314 312 299 285 275 268 246 261 225 208 195 201 198 209 207 192 188 173 158 166 167 129 128 124 117 114 109 105 101 89 79 75 77 75 60 56 52 61 82 147 33
329 321 316 314 310 308 263 256 232 234 232 209 197 197 203 204 205 192 191 185 165 168 139 131 129 121 115 113 112 109 108 102 92 89 84 72 71 54 40 38 18 51 158
327 324 318 319 316 319 322 245 243 252 204 196 192 195 202 201 201 191 192 179 159 143 140 134 126 119 113 110 107 103 105 104 107 95 90 75 63 61 47 33 50 359 348
331 326 324 330 340 328 334 345 316 131 23 193 192 196 204 202 199 189 193 146 151 137 133 128 120 117 113 115 116 116 109 104 94 88 82 79 72 44 32 34 67 343 6
332 330 337 341 342 343 338 357 25 16 350 108 201 182 192 192 177 172 152 150 128 118 127 123 119 112 116 112 111 109 105 102 92 90 89 83 74 59 50 36 65 5 30
336 334 336 341 342 341 351 338 338 347 343 352 322 236 166 131 126 140 139 130 112 128 121 109 111 107 109 107 105 104 102 97 90 88 87 75 70 61 45 37 6 39 36
342 338 335 336 335 347 350 344 5 335 337 359 306 81 75 106 97 136 103 119 113 117 109 107 98 105 104 108 111 109 108 105 102 90 78 60 57 47 51 10 12 48 38
336 338 335 333 339 340 1 0 6 354 298 292 125 96 89 111 113 121 109 118 108 102 107 108 105 107 106 105 113 112 104 99 99 100 97 74 43 18 14 15 46 157 108
329 338 343 334 335 337 347 14 5 356 15 129 149 113 106 90 95 106 105 95 103 114 107 103 107 103 104 105 101 95 90 87 80 70 65 64 40 26 21 19 53 85 339
336 336 340 341 342 341 357 356 3 21 39 57 91 99 98 97 98 105 106 98 109 98 101 103 103 104 107 101 95 92 86 82 79 82 86 88 57 36 19 34 16 11 351
333 332 335 341 338 347 357 3 5 30 55 45 54 112 113 110 98 113 111 112 104 98 95 102 108 108 102 101 95 95 93 90 83 74 62 65 69 30 17 24 18 10 1
341 335 340 349 342 353 0 13 26 47 56 64 53 73 97 104 109 104 106 106 105 106 105 96 91 97 103 102 98 101 106 98 95 85 74 59 48 39 26 30 18 18 350
348 341 352 7 351 352 3 7 19 53 80 83 69 71 88 97 102 103 100 102 104 104 100 94 85 74 75 92 123 118 117 117 107 94 64 40 19 11 7 13 27 338 340
351 346 355 15 356 356 3 1 22 37 70 90 88 72 90 97 102 99 104 101 104 104 102 95 81 65 73 92 97 105 107 111 110 102 76 33 5 1 348 5 359 20 38
346 341 19 25 9 6 3 6 10 60 91 88 80 82 92 90 93 102 103 102 102 98 101 97 95 86 67 71 86 95 92 86 76 80 74 36 12 34 50 48 33 22 44
351 337 30 39 21 15 19 7 31 63 94 97 96 97 93 93 89 89 90 98 99 102 99 101 107 101 81 71 66 69 67 51 56 38 26 19 31 63 72 46 28 26 48
339 353 55 44 36 29 34 20 36 103 98 97 99 98 86 83 85 65 70 86 95 110 118 116 109 106 97 88 114 100 82 76 48 77 55 44 40 45 49 45 34 28 27
352 10 59 60 49 50 49 33 36 88 97 99 97 100 101 94 87 87 79 56 82 87 88 89 98 68 87 103 79 80 80 73 73 61 64 51 35 49 63 56 32 24 21